Helicity
67 -42 -14 22 28 18 30 96 -15 3 1 87 102 79 63 70 90 114 102 60 139 140 34 72 111 136 105 68 50 -5 4 -24 16 48 35 24 19 29 26 20 25 17 -15 -18
-70 -97 -29 -49 -4 25 56 23 59 38 1 14 16 139 95 32 49 102 79 36 79 76 90 70 78 131 123 87 57 10 -19 -6 1 33 33 49 14 29 30 29 28 -3 -11 -19
-95 -53 -49 -23 -24 4 17 15 -34 11 48 49 43 45 36 37 178 95 84 55 43 88 99 80 110 105 128 81 71 28 -13 -12 -4 0 74 69 52 34 29 19 19 25 -15 -31
-126 -92 -36 -21 19 62 32 -20 12 21 40 41 -11 58 90 27 72 190 146 137 94 65 71 96 110 76 115 106 58 18 -8 -22 -30 28 21 29 32 27 35 44 42 29 25 5
-59 -75 -63 -56 6 44 -4 -6 -14 62 17 19 36 49 56 77 -17 77 133 151 114 67 116 156 142 114 70 91 91 52 -4 -25 -48 -36 -29 -38 29 31 37 35 29 8 10 14
-67 -33 -94 -58 -10 35 32 43 76 69 23 64 16 20 41 9 -17 5 88 111 136 98 81 84 74 63 47 57 74 52 31 -19 -10 -35 -30 -33 -28 17 30 24 16 10 -1 -7
-52 -83 -64 -36 -27 -1 52 94 64 39 64 110 11 34 48 43 19 7 35 105 127 102 70 76 97 79 80 92 106 72 38 22 0 10 -6 -2 -17 2 16 24 12 5 -3 -5
-121 -103 42 37 72 59 70 60 52 31 63 9 -12 39 -5 -28 3 -38 -8 49 75 52 64 92 88 86 95 106 90 106 77 29 -1 14 25 12 13 -3 -12 -9 -5 0 -6 -5
-50 -50 5 49 118 136 35 -7 30 52 43 31 15 -5 -1 12 25 17 -20 7 21 25 32 68 87 107 91 88 116 119 90 54 56 54 20 12 3 14 6 -3 9 2 0 5
-13 -45 9 8 52 97 26 73 30 50 20 17 11 12 1 -36 -26 -4 -4 -39 -20 4 36 49 97 103 91 92 108 119 114 104 86 71 40 34 40 34 30 29 11 10 15 15
70 23 -31 1 9 67 58 32 80 34 29 -5 1 14 -40 -34 64 17 24 -10 -7 7 27 66 98 101 110 84 88 114 125 104 81 97 82 91 67 91 73 69 55 40 29 26
79 55 -18 28 11 27 14 37 64 76 -3 16 7 -11 -19 -52 0 -48 42 8 45 -2 33 81 87 108 107 135 140 140 132 139 128 119 120 108 90 102 99 86 83 81 55 77
62 84 67 58 49 60 39 89 140 117 106 57 71 -2 21 -16 -18 -44 -54 31 45 -15 7 3 37 91 94 94 107 134 149 163 147 174 162 150 148 124 82 73 76 84 71 51
126 96 100 138 97 78 88 103 133 127 103 73 14 22 -12 45 6 -17 -47 -57 -2 25 4 31 25 20 32 66 101 128 133 158 184 186 190 176 158 148 126 89 80 84 87 78
100 90 129 81 127 108 127 127 144 132 106 56 -6 108 -13 -17 14 30 7 -42 -29 19 41 60 90 87 60 55 73 99 108 151 181 185 183 170 171 158 150 86 86 83 85 85
136 103 134 135 155 148 108 74 110 103 99 64 76 14 24 -93 11 10 25 35 10 45 71 66 69 101 109 103 92 110 79 89 109 107 106 140 161 167 149 108 113 65 97 120
180 199 165 161 234 284 182 93 107 146 132 131 64 -1 98 62 12 25 85 95 90 90 112 120 106 111 124 100 100 116 106 94 90 81 72 75 92 116 138 127 133 166 160 105
116 176 208 236 246 274 247 161 120 110 116 94 113 81 102 91 66 58 143 159 109 139 136 123 149 158 156 168 177 163 161 107 93 94 79 69 62 71 112 125 113 156 197 178
105 98 143 194 234 203 205 210 176 132 67 128 103 58 75 122 126 78 118 102 105 151 177 199 179 203 233 224 193 207 169 151 138 143 128 115 100 80 84 101 104 126 165 177
196 151 124 170 208 185 142 173 151 137 169 104 124 102 139 187 204 81 131 126 119 142 170 211 247 278 254 200 196 203 139 110 100 104 105 108 103 98 86 84 110 126 172 178
139 158 143 170 182 182 130 112 147 221 121 108 115 109 183 135 96 68 106 128 129 154 231 249 275 263 213 175 173 156 114 94 77 75 75 81 87 93 105 86 92 105 120 143
113 128 130 146 185 217 202 146 154 101 109 73 68 76 111 122 122 88 105 115 159 228 276 288 259 207 168 146 129 113 105 84 84 79 71 65 95 113 110 89 119 122 103 110
144 145 154 127 108 152 135 122 156 31 27 57 77 104 161 132 104 91 114 126 147 185 208 202 190 164 135 119 121 110 96 105 83 61 39 40 75 128 136 132 124 123 128 106
168 147 147 138 110 108 143 130 96 123 92 68 125 137 125 143 122 132 139 109 133 154 150 139 130 119 108 112 132 130 107 88 72 48 23 9 33 111 134 140 140 113 120 111
118 124 111 107 89 81 75 108 125 132 135 128 213 247 205 192 137 111 82 106 142 139 134 121 127 150 154 174 149 81 55 60 62 38 -5 -33 -12 24 80 102 111 116 113 89
88 64 83 88 28 47 79 110 120 128 126 71 148 171 141 113 44 47 101 136 123 114 114 131 120 131 129 144 84 43 22 47 44 37 5 -25 -60 -78 -32 31 56 105 96 146
Wind_Speed
14 14 9 19 22 35 37 36 30 31 24 18 24 24 37 34 8 51 53 55 51 44 39 26 18 19 20 18 17 35 29 28 6 14 27 44 42 44 48 46 46 43 40 35
12 16 14 22 23 30 32 32 37 33 26 22 39 35 28 48 51 46 54 50 43 38 11 21 26 20 24 27 31 35 37 25 7 11 19 37 45 47 47 45 44 45 35 36
24 19 24 17 25 31 32 25 35 30 25 32 42 50 50 40 33 28 40 32 46 46 37 33 35 27 26 32 33 36 45 27 11 6 20 29 32 35 41 44 45 42 43 40
20 31 22 15 11 15 35 34 47 34 34 39 36 43 45 42 30 25 35 29 42 54 41 37 33 32 33 39 42 45 49 42 25 5 5 12 32 34 39 39 40 43 42 43
19 22 23 23 24 13 37 35 30 37 44 45 40 38 36 41 39 26 32 47 46 48 43 41 45 39 36 32 38 43 49 52 48 41 48 42 53 40 41 38 43 48 48 44
31 18 16 21 20 18 30 30 32 33 37 40 37 32 42 39 38 44 31 41 48 50 48 46 45 40 36 35 31 38 49 57 49 47 52 53 56 56 50 50 51 50 50 50
12 33 27 16 16 16 11 32 41 38 36 43 41 35 42 36 45 38 42 31 33 44 45 36 39 43 40 38 36 35 39 53 52 48 43 43 54 58 54 50 55 54 52 53
13 6 25 21 24 16 18 12 29 41 38 42 42 45 48 40 34 30 31 27 23 29 40 36 38 42 41 37 38 38 38 44 49 49 48 35 42 61 62 60 56 55 54 52
15 14 25 14 12 6 9 16 8 38 41 46 42 44 44 34 25 26 27 23 33 35 38 35 27 36 41 38 37 38 36 40 45 51 53 46 37 53 62 64 60 58 56 54
17 21 28 32 23 23 7 11 13 26 41 42 39 42 38 29 25 20 25 27 37 32 30 34 35 39 39 37 33 31 33 34 36 37 42 50 42 27 31 56 64 61 58 56
5 12 11 34 22 16 11 11 22 21 35 42 42 45 38 38 28 19 22 30 31 30 31 32 36 32 35 33 29 30 23 24 26 26 26 22 29 14 11 15 17 62 60 55
2 17 6 15 37 36 13 5 9 22 54 46 45 50 38 38 13 42 17 36 25 26 28 28 26 28 21 23 20 30 25 11 13 8 9 13 11 21 19 21 25 35 14 34
13 24 38 46 31 28 23 19 20 25 29 34 38 48 38 40 35 35 29 17 10 14 12 11 11 12 22 23 17 8 6 17 9 17 20 26 22 18 28 35 35 36 55 69
14 28 35 28 23 25 27 24 17 21 29 38 54 55 54 30 32 34 31 24 20 6 20 21 18 22 18 7 3 2 8 20 26 27 25 23 24 31 26 37 35 34 39 55
35 49 36 40 41 28 31 11 7 15 31 47 62 29 20 23 21 22 18 9 7 9 6 10 12 7 1 5 14 17 29 31 26 26 30 30 34 33 40 39 41 37 42 40
45 55 49 52 32 33 48 4 11 14 27 35 47 59 45 52 16 20 5 2 1 5 4 12 10 6 2 5 10 26 45 42 30 31 26 33 37 37 31 33 38 38 29 40
49 52 53 59 48 39 54 18 15 27 28 31 13 45 32 18 5 10 5 6 4 6 7 9 7 15 21 21 27 32 34 37 37 38 45 47 43 36 37 36 35 29 26 45
49 51 48 57 49 56 45 43 38 44 45 30 42 40 10 7 8 14 9 7 11 5 2 3 13 21 23 31 34 35 36 38 38 42 49 51 52 50 41 36 31 30 30 28
42 45 48 52 52 61 57 50 49 46 59 36 25 21 19 20 29 29 18 11 6 8 15 16 16 21 26 29 30 34 36 39 41 46 48 51 51 49 41 34 29 30 31 28
40 43 50 49 58 65 50 45 44 42 55 39 30 42 29 22 31 40 25 18 24 20 18 19 19 22 24 29 29 33 39 45 50 53 56 56 56 54 54 50 43 34 32 33
50 48 51 55 65 64 50 45 42 56 57 54 42 37 20 19 26 33 26 26 26 24 22 20 20 23 27 28 30 38 42 51 54 58 61 62 59 58 57 57 54 49 42 39
60 58 55 52 60 71 43 41 46 45 43 44 38 29 16 25 26 28 26 21 20 23 25 23 23 26 29 31 37 46 50 52 54 54 56 57 57 57 57 57 54 51 48 41
60 55 60 60 64 52 54 59 59 53 55 46 34 32 25 26 27 26 28 23 23 26 24 24 26 28 33 36 38 42 43 43 46 50 55 58 57 54 54 52 50 49 48 50
48 44 55 60 59 66 60 57 55 57 62 54 31 23 20 24 23 28 29 21 23 27 27 26 27 31 33 33 34 34 35 39 43 48 51 53 53 48 47 46 46 46 46 46
52 47 51 59 62 61 57 57 51 55 50 36 27 22 21 22 23 24 27 23 26 29 28 24 25 29 31 34 34 28 28 31 36 40 44 47 46 43 40 39 41 43 43 45
53 60 65 64 55 59 64 50 47 47 42 34 17 21 20 19 17 22 22 24 30 28 23 21 23 24 23 25 22 19 21 25 28 33 38 41 43 42 40 35 35 35 35 36
Wind_Direction
355 356 43 353 355 327 323 324 317 321 335 41 141 156 186 171 44 204 200 220 198 190 180 142 101 89 106 126 137 148 141 138 120 272 262 238 252 237 225 224 219 230 183 156
41 136 108 12 6 339 327 314 299 313 316 338 291 208 185 210 216 197 205 201 186 175 125 133 131 100 116 133 147 154 157 147 145 270 281 256 234 232 228 238 240 218 143 157
135 64 44 34 344 334 309 325 288 319 330 314 301 276 249 221 185 177 189 175 182 175 157 150 153 135 122 141 147 157 164 152 152 158 274 269 274 265 249 248 248 240 207 187
125 168 158 114 84 356 291 291 240 299 299 308 279 278 282 277 185 168 179 163 169 179 171 166 156 151 147 155 156 162 165 160 149 194 220 283 268 265 259 269 255 244 252 249
97 106 124 131 125 62 289 303 308 295 274 282 307 314 262 304 252 168 171 177 172 177 174 171 170 161 155 139 150 159 167 167 164 159 169 165 239 264 262 274 257 239 243 261
169 318 112 133 104 90 300 311 319 305 292 284 310 325 296 304 335 262 166 170 173 176 177 173 171 160 152 146 138 150 165 175 167 167 175 179 194 239 253 255 248 253 247 238
334 179 161 116 94 63 28 303 288 295 297 287 303 318 255 272 277 248 222 156 156 167 167 154 156 164 160 156 148 145 154 173 170 169 171 176 190 231 255 263 242 239 234 241
119 147 156 146 163 120 123 104 299 288 294 296 308 302 298 278 273 300 267 111 125 143 157 155 158 162 163 159 158 153 155 166 171 175 178 171 177 206 216 233 237 242 240 239
69 42 317 64 20 117 84 132 23 294 296 295 301 301 284 280 329 3 14 46 120 139 153 154 144 157 166 166 163 162 160 166 173 184 189 186 181 196 212 228 249 247 246 252
15 351 326 318 11 322 92 53 16 308 286 289 295 293 295 298 299 347 25 38 104 117 136 152 157 166 168 169 167 165 166 167 171 174 183 194 189 185 202 252 248 252 257 262
334 338 192 324 1 78 40 342 326 349 275 288 293 282 257 234 121 74 78 94 96 106 122 139 153 154 164 165 165 172 171 171 174 177 179 182 187 202 233 272 282 259 266 275
249 323 286 185 313 308 337 26 6 315 257 276 276 261 295 277 10 252 84 155 107 104 126 133 135 145 139 151 155 171 175 192 201 227 222 211 257 283 280 281 285 289 244 295
332 302 293 295 315 316 314 317 318 319 307 293 294 273 307 297 307 297 295 330 31 355 63 66 358 110 145 154 153 159 189 189 255 283 281 287 293 274 283 286 288 289 281 264
311 302 292 295 296 307 308 304 307 310 309 299 270 276 273 323 304 294 297 316 320 354 322 324 326 311 316 356 36 31 304 299 297 294 286 280 279 284 288 288 290 290 288 280
297 287 292 292 288 301 300 288 217 295 308 297 287 313 194 168 147 148 148 121 91 121 56 5 346 352 99 338 327 328 313 308 304 298 295 290 289 285 282 286 290 291 288 287
299 286 286 280 285 282 279 277 161 313 314 312 305 276 295 240 338 332 103 37 110 150 349 347 350 358 340 339 337 325 305 304 312 309 307 309 298 289 282 281 286 289 286 285
292 286 282 274 278 277 272 276 283 303 311 315 281 223 318 319 321 323 314 315 296 307 316 337 352 339 334 337 334 329 319 308 309 306 303 303 304 300 291 287 284 280 278 276
287 287 287 276 275 268 280 280 288 292 296 307 304 308 295 227 215 320 322 276 310 306 263 327 337 334 337 330 331 332 325 315 310 309 305 302 299 298 298 293 285 276 274 266
285 284 283 280 275 277 277 276 280 286 287 302 302 302 313 312 316 318 307 306 269 322 327 333 342 339 337 336 338 335 325 320 315 313 313 308 305 303 302 297 288 284 279 274
284 280 275 278 276 274 280 285 289 290 286 301 304 297 303 310 303 304 303 317 319 330 337 338 346 347 343 339 341 336 324 318 312 311 308 308 304 302 298 296 292 286 278 275
277 277 272 272 274 278 282 292 289 277 287 296 293 298 296 300 313 311 323 319 321 334 338 346 349 344 340 341 339 329 326 317 315 310 306 304 303 302 298 298 294 289 286 284
274 272 272 276 275 274 287 287 282 293 299 300 299 300 286 301 311 319 339 355 344 338 340 343 344 343 340 337 332 324 320 320 319 317 315 312 307 304 301 298 296 292 288 286
275 274 274 272 277 288 289 282 282 288 286 298 297 296 291 298 305 305 325 354 351 345 349 346 343 339 335 334 333 327 327 330 327 324 321 318 315 310 306 299 297 294 291 286
283 284 278 280 282 280 283 287 289 286 280 283 291 293 295 299 311 306 313 352 350 343 345 345 343 338 336 340 338 335 336 336 336 334 332 329 324 321 314 306 300 295 291 289
279 284 282 281 283 283 282 282 287 288 286 279 275 279 291 302 309 310 312 338 335 333 339 347 345 340 338 339 337 338 340 344 344 348 345 346 343 341 329 322 310 296 294 290
279 276 274 272 280 285 279 286 289 287 286 280 271 278 288 297 309 310 324 333 331 331 341 349 349 355 356 2 359 11 10 1 358 357 358 355 357 358 358 342 325 322 312 305